DW7601 San Vito IT current weather conditions

sailwx.info

Wind from 270

Air temperature 16.7° C
Dewpoint 8.9° C

Last reported at 2014-Oct-24 19:51 UTC.
Time now 2014-Oct-24 20:41 UTC

Location: N 39°27' E 009°32'.
View on Google Maps.

See reports from other nearby stations

  
Tides and Currents Weather Stations Pressure Air Temp Water Temp Dewpoint Dewpoint Depression Visibility Wind Speed Wind Dir Waves Ship Positions
date/time (UTC)wind fromknots sea level pressurealtimeterstation pressurevisibilityair tempwater tempwave heightnotes
2014-Oct-24 19:51 270 16.7
2014-Oct-24 19:41 270 16.7
2014-Oct-24 19:31 270 16.7
2014-Oct-24 19:21 270 17.2
2014-Oct-24 19:11 270 17.2
2014-Oct-24 19:01 270 17.2
2014-Oct-24 18:51 270 17.2
2014-Oct-24 18:41 270 17.2
2014-Oct-24 18:31 270 17.8
2014-Oct-24 18:21 270 17.8
2014-Oct-24 18:11 270 17.8
2014-Oct-24 18:01 270 17.8
2014-Oct-24 17:51 270 17.8
2014-Oct-24 17:41 270 18.3
2014-Oct-24 17:31 209 18.9
2014-Oct-24 17:21 211 18.9
2014-Oct-24 17:11 045 19.4
2014-Oct-24 17:01 284 20.0
2014-Oct-24 16:51 275 20.0
2014-Oct-24 16:41 254 0 gusting 1 20.6
2014-Oct-24 16:31 202 20.6
2014-Oct-24 16:21 174 0 gusting 1 21.1
2014-Oct-24 16:11 180 21.1
2014-Oct-24 16:01 255 21.7
2014-Oct-24 15:51 099 1 gusting 2 21.7
2014-Oct-24 15:41 058 1 gusting 1 22.2
2014-Oct-24 15:31 013 1 gusting 6 23.3
2014-Oct-24 15:21 108 2 gusting 6 23.9
2014-Oct-24 15:11 078 2 gusting 5 24.4
2014-Oct-24 15:01 086 3 gusting 7 24.4
2014-Oct-24 14:51 109 3 gusting 7 25.0
2014-Oct-24 14:21 112 2 gusting 6 25.0
2014-Oct-24 14:11 094 2 gusting 6 25.6
2014-Oct-24 14:01 097 4 gusting 6 25.6
2014-Oct-24 13:51 097 4 gusting 7 25.0
2014-Oct-24 13:41 068 4 gusting 6 25.6
2014-Oct-24 13:31 075 4 gusting 5 25.6
2014-Oct-24 13:21 106 4 gusting 7 25.6
2014-Oct-24 13:11 131 4 gusting 7 25.6
2014-Oct-24 13:01 011 2 gusting 7 26.1
2014-Oct-24 12:51 124 2 gusting 6 26.1
2014-Oct-24 12:41 090 2 gusting 6 26.1
2014-Oct-24 12:31 116 2 gusting 6 26.1
2014-Oct-24 12:21 026 2 gusting 6 26.7
2014-Oct-24 12:11 083 2 gusting 6 26.1
2014-Oct-24 12:01 034 2 gusting 6 26.7
2014-Oct-24 11:51 094 4 gusting 6 26.7
2014-Oct-24 11:41 100 2 gusting 6 26.7
2014-Oct-24 11:31 189 1 gusting 5 26.7
2014-Oct-24 11:21 105 0 gusting 4 27.2
2014-Oct-24 11:11 060 1 gusting 2 26.7
2014-Oct-24 11:01 090 1 gusting 1 26.7
2014-Oct-24 10:51 135 0 gusting 1 25.0
2014-Oct-24 10:41 090 0 gusting 2 25.0
2014-Oct-24 10:31 25.0
2014-Oct-24 10:21 25.0
2014-Oct-24 10:11 022 0 gusting 1 23.9
2014-Oct-24 10:01 022 0 gusting 2 23.9
2014-Oct-24 09:51 23.3
2014-Oct-24 09:41 022 2 gusting 4 22.8
2014-Oct-24 09:31 022 2 gusting 4 22.2
2014-Oct-24 09:21 045 1 gusting 4 21.7
2014-Oct-24 09:11 225 1 gusting 4 21.1
2014-Oct-24 09:01 338 1 gusting 5 20.0
2014-Oct-24 08:51 045 2 gusting 4 19.4
2014-Oct-24 08:41 022 2 gusting 5 18.9
2014-Oct-24 08:31 17.8
2014-Oct-24 08:21 022 2 gusting 4 17.2
2014-Oct-24 08:11 022 1 gusting 2 16.7
2014-Oct-24 08:01 022 2 gusting 5 15.6
2014-Oct-24 07:51 338 3 gusting 6 14.4
2014-Oct-24 07:41 13.9
2014-Oct-24 07:31 338 2 gusting 4 13.9
2014-Oct-24 07:21 022 4 gusting 6 13.3
2014-Oct-24 07:11 13.3
2014-Oct-24 07:01 022 4 gusting 6 13.3
2014-Oct-24 06:51 022 4 gusting 6 13.3
2014-Oct-24 06:41 338 4 gusting 6 13.3
2014-Oct-24 06:31 022 4 gusting 7 13.3
2014-Oct-24 06:21 338 4 gusting 6 13.3
2014-Oct-24 06:11 13.3
2014-Oct-24 06:01 022 3 gusting 5 13.3
2014-Oct-24 05:51 026 3 gusting 5 13.3
2014-Oct-24 05:41 061 2 gusting 5 13.9
2014-Oct-24 05:31 008 4 gusting 6 13.3
2014-Oct-24 05:21 015 4 gusting 6 13.9
2014-Oct-24 05:11 319 4 gusting 6 13.3
2014-Oct-24 05:01 034 4 gusting 6 13.3
2014-Oct-24 04:51 13.3
2014-Oct-24 04:41 004 4 gusting 7 13.3
2014-Oct-24 04:31 022 4 gusting 7 13.3
2014-Oct-24 04:21 022 5 gusting 7 13.9
2014-Oct-24 04:11 022 4 gusting 5 14.4
2014-Oct-24 04:01 14.4
2014-Oct-24 03:51 022 3 gusting 5 14.4
2014-Oct-24 03:41 015 2 gusting 6 14.4
2014-Oct-24 03:31 007 5 gusting 6 14.4
2014-Oct-24 03:21 022 4 gusting 6 14.4
2014-Oct-24 03:11 064 2 gusting 6 14.4
2014-Oct-24 03:01 052 2 gusting 5 14.4
2014-Oct-24 02:51 032 4 gusting 6 14.4
2014-Oct-24 02:41 026 4 gusting 6 14.4
2014-Oct-24 02:31 022 5 gusting 7 14.4
2014-Oct-24 02:21 356 5 gusting 8 14.4
2014-Oct-24 02:11 349 4 gusting 6 15.0
2014-Oct-24 02:01 338 2 gusting 5 15.0
2014-Oct-24 01:51 15.0
2014-Oct-24 01:41 015 1 gusting 5 15.0
2014-Oct-24 01:31 338 1 gusting 5 15.0
2014-Oct-24 01:21 051 0 gusting 5 15.0
2014-Oct-24 01:11 090 0 gusting 5 15.6
2014-Oct-24 01:01 022 0 gusting 1 15.0
2014-Oct-24 00:51 351 1 gusting 1 15.0
2014-Oct-24 00:41 007 2 gusting 6 15.6
2014-Oct-24 00:31 15.6
2014-Oct-24 00:21 003 2 gusting 6 15.6
2014-Oct-24 00:11 278 2 gusting 4 15.6
2014-Oct-24 00:01 027 1 gusting 6 16.1
2014-Oct-23 23:51 292 1 gusting 6 16.1
2014-Oct-23 23:41 019 0 gusting 2 16.1
2014-Oct-23 23:31 059 0 gusting 2 16.1
2014-Oct-23 23:21 172 0 gusting 1 16.1
2014-Oct-23 23:11 342 2 gusting 6 16.1
2014-Oct-23 23:01 010 4 gusting 7 16.7
2014-Oct-23 22:51 022 5 gusting 7 16.7
2014-Oct-23 22:41 003 4 gusting 7 16.7
2014-Oct-23 22:31 292 4 gusting 12 16.7
2014-Oct-23 22:21 350 6 gusting 10 16.7
2014-Oct-23 22:11 022 6 gusting 10 16.7
2014-Oct-23 22:01 018 6 gusting 12 16.7
2014-Oct-23 21:51 039 6 gusting 12 16.7
2014-Oct-23 21:41 015 6 gusting 12 16.7
2014-Oct-23 21:31 202 5 gusting 13 16.7
2014-Oct-23 21:21 035 6 gusting 11 16.7
2014-Oct-23 21:11 026 7 gusting 11 16.7
2014-Oct-23 21:01 342 6 gusting 10 16.7
2014-Oct-23 20:51 353 6 gusting 10 16.7
2014-Oct-23 20:41 357 6 gusting 12 16.7
2014-Oct-23 20:31 035 5 gusting 6 16.7
2014-Oct-23 20:21 327 5 gusting 8 16.7
2014-Oct-23 20:11 304 5 gusting 6 16.7
2014-Oct-23 20:01 011 6 gusting 8 16.7
2014-Oct-23 19:51 019 5 gusting 8 16.7
2014-Oct-23 19:41 260 5 gusting 11 16.7
2014-Oct-23 19:31 260 5 gusting 12 16.7
2014-Oct-23 19:21 284 6 gusting 12 17.2
2014-Oct-23 19:11 277 6 gusting 11 17.2
2014-Oct-23 19:01 334 5 gusting 11 17.2
2014-Oct-23 18:51 273 5 gusting 8 17.2
2014-Oct-23 18:31 345 4 gusting 7 17.2
2014-Oct-23 18:21 015 5 gusting 8 17.2
2014-Oct-23 18:11 283 5 gusting 6 17.2
2014-Oct-23 18:01 17.8
2014-Oct-23 17:51 351 5 gusting 7 17.8
2014-Oct-23 17:41 282 4 gusting 10 17.8
2014-Oct-23 17:31 347 6 gusting 8 17.8
2014-Oct-23 17:21 334 5 gusting 8 17.8
2014-Oct-23 17:11 338 5 gusting 7 17.8
2014-Oct-23 17:01 328 5 gusting 11 18.3
2014-Oct-23 16:51 302 4 gusting 6 18.3
2014-Oct-23 16:41 012 5 gusting 10 18.3
2014-Oct-23 16:31 015 5 gusting 11 18.9
2014-Oct-23 16:21 004 5 gusting 11 18.9
2014-Oct-23 16:11 280 6 gusting 7 18.9
2014-Oct-23 16:01 349 5 gusting 10 19.4
2014-Oct-23 15:51 318 4 gusting 10 19.4
2014-Oct-23 15:41 308 5 gusting 8 20.0
2014-Oct-23 15:31 237 4 gusting 6 20.6
2014-Oct-23 15:21 299 4 gusting 7 21.1
2014-Oct-23 15:11 022 4 gusting 6 21.7
2014-Oct-23 15:01 296 5 gusting 12 22.2
2014-Oct-23 14:51 016 3 gusting 10 22.2
2014-Oct-23 14:41 349 4 gusting 6 22.2
2014-Oct-23 14:31 196 2 gusting 5 22.8
2014-Oct-23 14:21 207 3 gusting 5 22.8
2014-Oct-23 14:11 348 5 gusting 7 22.2
2014-Oct-23 14:01 304 6 gusting 12 22.2
2014-Oct-23 13:51 301 6 gusting 13 22.2
2014-Oct-23 13:41 270 6 gusting 13 22.2
2014-Oct-23 13:31 233 4 gusting 13 22.8
2014-Oct-23 13:21 300 5 gusting 10 22.8
2014-Oct-23 13:11 21.1
2014-Oct-23 13:01 338 6 gusting 7 21.1
2014-Oct-23 12:51 292 6 gusting 12 21.1
2014-Oct-23 12:41 288 6 gusting 8 21.1
2014-Oct-23 12:31 292 5 gusting 8 21.1
2014-Oct-23 12:21 270 6 gusting 8 21.1
2014-Oct-23 12:11 225 6 gusting 12 21.1
2014-Oct-23 12:01 045 6 gusting 12 21.1
2014-Oct-23 11:51 045 6 gusting 12 21.1
2014-Oct-23 11:41 21.1
2014-Oct-23 11:31 338 5 gusting 7 21.1
2014-Oct-23 11:21 315 5 gusting 7 21.1
2014-Oct-23 11:11 270 5 gusting 10 21.1
2014-Oct-23 11:01 270 5 gusting 10 21.1
2014-Oct-23 10:51 225 6 gusting 10 21.1
2014-Oct-23 10:41 022 6 gusting 10 21.1
2014-Oct-23 10:31 292 4 gusting 6 21.1
2014-Oct-23 10:21 270 4 gusting 5 21.1
2014-Oct-23 10:11 315 5 gusting 4 21.1
2014-Oct-23 10:01 21.1
2014-Oct-23 09:51 338 4 gusting 7 21.1
2014-Oct-23 09:41 180 6 gusting 11 21.1
2014-Oct-23 09:31 270 5 gusting 10 20.6
2014-Oct-23 09:21 20.6
2014-Oct-23 09:11 270 6 gusting 12 20.6
2014-Oct-23 09:01 315 4 gusting 7 20.0
2014-Oct-23 08:51 315 6 gusting 7 20.0
2014-Oct-23 08:41 292 6 gusting 10 19.4
2014-Oct-23 08:31 022 5 gusting 12 19.4
2014-Oct-23 08:21 315 4 gusting 12 18.9
2014-Oct-23 08:11 045 4 gusting 8 18.3
2014-Oct-23 08:01 17.8
2014-Oct-23 07:51 338 4 gusting 6 16.7
2014-Oct-23 07:41 338 4 gusting 6 16.1
2014-Oct-23 07:31 338 2 gusting 6 15.6
2014-Oct-23 07:21 338 2 gusting 5 15.6
2014-Oct-23 07:11 022 4 gusting 6 15.0
2014-Oct-23 07:01 225 2 gusting 6 15.0
2014-Oct-23 06:51 022 2 gusting 6 15.0
2014-Oct-23 06:41 315 4 gusting 6 14.4
2014-Oct-23 06:31 338 4 gusting 6 14.4
2014-Oct-23 06:21 068 2 gusting 6 14.4
2014-Oct-23 06:11 338 2 gusting 4 14.4
2014-Oct-23 06:01 14.4
2014-Oct-23 05:51 315 2 gusting 6 14.4
2014-Oct-23 05:41 14.4
2014-Oct-23 05:31 315 2 gusting 6 13.9
2014-Oct-23 05:21 022 1 gusting 4 13.9
2014-Oct-23 05:11 315 1 gusting 4 13.9
2014-Oct-23 05:01 022 2 gusting 5 13.9
2014-Oct-23 04:51 022 1 gusting 6 14.4
2014-Oct-23 04:41 13.9
2014-Oct-23 04:31 315 1 gusting 5 13.3
2014-Oct-23 04:21 337 1 gusting 4 13.3
2014-Oct-23 04:11 338 0 gusting 2 11.7
2014-Oct-23 04:01 292 0 gusting 2 11.7
2014-Oct-23 03:51 292 11.7
2014-Oct-23 03:41 045 11.7
2014-Oct-23 03:31 112 12.2
2014-Oct-23 03:21 202 0 gusting 0 12.2
2014-Oct-23 03:11 225 12.2
2014-Oct-23 03:01 068 12.2
2014-Oct-23 02:51 112 12.8
2014-Oct-23 02:41 030 0 gusting 1 12.8
2014-Oct-23 02:31 225 0 gusting 1 12.8
2014-Oct-23 02:21 270 0 gusting 1 12.8
2014-Oct-23 02:11 067 0 gusting 1 12.8
2014-Oct-23 02:01 090 12.8
2014-Oct-23 01:51 091 12.8
2014-Oct-23 01:41 135 12.8
2014-Oct-23 01:31 292 0 gusting 1 13.3
2014-Oct-23 01:21 090 0 gusting 1 13.3
2014-Oct-23 01:11 338 1 gusting 1 12.8
2014-Oct-23 01:01 067 1 gusting 1 13.3
2014-Oct-23 00:51 13.3
2014-Oct-23 00:41 13.3
2014-Oct-23 00:31 022 13.3
2014-Oct-23 00:21 225 13.3
2014-Oct-23 00:11 090 0 gusting 1 13.9
2014-Oct-23 00:01 202 13.9
2014-Oct-22 23:51 180 13.9
2014-Oct-22 23:41 112 0 gusting 1 14.4
2014-Oct-22 23:31 14.4
2014-Oct-22 23:21 338 14.4
2014-Oct-22 23:11 292 0 gusting 1 14.4
2014-Oct-22 23:01 270 1 gusting 1 15.0
2014-Oct-22 22:51 225 0 gusting 1 15.0
2014-Oct-22 22:41 338 15.0
2014-Oct-22 22:31 270 15.6
2014-Oct-22 22:21 338 0 gusting 1 15.6
2014-Oct-22 22:11 315 0 gusting 1 15.6
2014-Oct-22 22:01 338 0 gusting 1 15.6
2014-Oct-22 21:51 292 0 gusting 1 15.6
2014-Oct-22 21:41 315 16.1
2014-Oct-22 21:31 338 16.1
2014-Oct-22 21:21 270 0 gusting 1 16.1
2014-Oct-22 21:11 327 0 gusting 1 16.7
2014-Oct-22 21:01 338 1 gusting 4 16.7
2014-Oct-22 20:51 16.7
2014-Oct-22 20:41 022 0 gusting 1 16.7
2014-Oct-22 20:31 17.2
2014-Oct-22 20:21 270 0 gusting 1 17.2
2014-Oct-22 20:11 022 0 gusting 1 17.2
2014-Oct-22 20:01 338 0 gusting 1 17.2